Wellsville, NY

1:12 PM EDT on July 20, 2017 (GMT -0400)
Wellsville Municipal-Tarantine

Weather History for KELZ - February, 2013

Change the Weather History Date:

Friday, February 22, 2013

  Actual Average (KDSV) Record (KDSV)
Temperature  
Mean Temperature 23 °F -  
Max Temperature 30 °F 40 °F 66 °F (2017)
Min Temperature 16 °F 21 °F -2 °F (1963)
Degree Days  
Heating Degree Days 42    
Moisture  
Dew Point 18 °F    
Average Humidity 78    
Maximum Humidity 88    
Minimum Humidity 54    
Precipitation  
Precipitation 0.00 in - - ()
Sea Level Pressure  
Sea Level Pressure 30.17 in    
Wind  
Wind Speed 11 mph (SSE)    
Max Wind Speed 25 mph    
Max Gust Speed 36 mph    
Visibility 9 miles    
Events Snow    
Averages and records for this station are not official NWS values.
T = Trace of Precipitation, MM = Missing Value Source: NWS Daily Summary

Daily Weather History Graph

Daily Weather History Graph

Search for Another Location

Airport or City:

Trip Planner

Search our weather history database for the weather conditions in past years. The results will help you decide how hot, cold, wet, or windy it might be!

Date:

Astronomy

Feb. 22, 2013 Rise Set
Actual Time 6:57 AM EST 5:53 PM EST
Civil Twilight 6:29 AM EST 6:22 PM EST
Nautical Twilight 5:56 AM EST 6:54 PM EST
Astronomical Twilight 5:24 AM EST 7:27 PM EST
Moon 3:01 PM EST (2/22) 4:43 AM EST (2/22)
Length of Visible Light 11h 52m
Length of Day
10h 56m
Waxing Gibbous, 90% of the Moon is Illuminated
Feb 22
Waxing Gibbous
Feb 25
Full
Mar 4
Last Quarter
Mar 11
New
Mar 19
First Quarter

Hourly Weather History & Observations

Time (EST) Temp. Windchill Dew Point Humidity Pressure Visibility Wind Dir Wind Speed Gust Speed Precip Events Conditions
12:56 AM 16.0 °F 5.3 °F 12.0 °F 84% 30.37 in 10.0 mi East 8.1 mph - N/A   Overcast
1:56 AM 16.0 °F 3.6 °F 12.0 °F 84% 30.38 in 10.0 mi ESE 10.4 mph - N/A   Overcast
2:56 AM 16.0 °F 5.3 °F 12.9 °F 88% 30.38 in 10.0 mi SE 8.1 mph - N/A   Overcast
3:56 AM 17.1 °F 7.6 °F 12.9 °F 84% 30.34 in 10.0 mi ESE 6.9 mph - N/A   Overcast
4:56 AM 17.1 °F 5.8 °F 14.0 °F 88% 30.34 in 10.0 mi SE 9.2 mph - N/A   Overcast
5:29 AM 17.6 °F 8.2 °F 14.0 °F 86% 30.25 in 10.0 mi SSE 6.9 mph - N/A   Overcast
5:56 AM 18.0 °F 7.7 °F 14.0 °F 84% 30.36 in 10.0 mi SE 8.1 mph - N/A   Overcast
6:19 AM 17.6 °F 6.4 °F 14.0 °F 86% 30.24 in 10.0 mi SE 9.2 mph - N/A   Partly Cloudy
6:56 AM 18.0 °F 7.7 °F 14.0 °F 84% 30.33 in 10.0 mi SE 8.1 mph - N/A   Clear
7:56 AM 19.0 °F 10.0 °F 15.1 °F 85% 30.32 in 10.0 mi SSE 6.9 mph - N/A   Partly Cloudy
8:56 AM 21.0 °F 10.6 °F 16.0 °F 81% 30.30 in 10.0 mi SSE 9.2 mph - N/A   Clear
9:56 AM 24.1 °F 11.5 °F 16.0 °F 71% 30.27 in 10.0 mi SE 15.0 mph 21.9 mph N/A   Partly Cloudy
10:56 AM 27.0 °F 16.7 °F 16.0 °F 63% 30.22 in 10.0 mi SSE 11.5 mph 25.3 mph N/A   Overcast
11:56 AM 28.9 °F 16.9 °F 17.1 °F 61% 30.17 in 10.0 mi SE 17.3 mph 26.5 mph N/A   Overcast
12:56 PM 30.9 °F 19.8 °F 16.0 °F 54% 30.15 in 10.0 mi SSE 16.1 mph 25.3 mph N/A   Overcast
1:56 PM 30.9 °F 17.2 °F 19.9 °F 64% 30.13 in 10.0 mi SSE 25.3 mph 35.7 mph 0.00 in   Overcast
2:24 PM 30.2 °F 19.8 °F 21.2 °F 69% 30.04 in 2.0 mi SSE 13.8 mph 27.6 mph 0.00 in Snow Light Snow
2:30 PM 28.4 °F 17.5 °F 21.2 °F 74% 30.04 in 0.8 mi SSE 13.8 mph 24.2 mph 0.00 in Snow Light Snow
2:37 PM 28.4 °F 18.0 °F 21.2 °F 74% 30.03 in 2.0 mi SSE 12.7 mph 24.2 mph 0.00 in Snow Light Snow
2:45 PM 28.4 °F 15.8 °F 21.2 °F 74% 30.03 in 9.0 mi SSE 18.4 mph 28.8 mph 0.00 in Snow Light Snow
2:56 PM 28.9 °F 17.7 °F 21.0 °F 72% 30.12 in 4.0 mi SSE 15.0 mph 27.6 mph 0.00 in Snow Light Snow
3:56 PM 28.9 °F 16.5 °F 21.0 °F 72% 30.11 in 10.0 mi South 18.4 mph 27.6 mph 0.00 in   Overcast
4:20 PM 28.4 °F 16.6 °F 21.2 °F 74% 30.01 in 10.0 mi SSE 16.1 mph 24.2 mph N/A   Overcast
4:56 PM 28.0 °F 16.1 °F 21.0 °F 75% 30.11 in 10.0 mi SSE 16.1 mph 27.6 mph N/A   Overcast
5:56 PM 27.0 °F 15.2 °F 21.9 °F 81% 30.12 in 10.0 mi SSE 15.0 mph 24.2 mph N/A   Overcast
6:15 PM 26.6 °F 14.3 °F 21.2 °F 80% 30.02 in 10.0 mi SSE 16.1 mph 21.9 mph N/A   Overcast
6:56 PM 26.1 °F 14.5 °F 21.9 °F 84% 30.12 in 10.0 mi SSE 13.8 mph 21.9 mph N/A   Overcast
7:56 PM 26.1 °F 16.8 °F 21.9 °F 84% 30.13 in 10.0 mi South 9.2 mph 21.9 mph N/A   Overcast
8:49 PM 26.6 °F 14.7 °F 21.2 °F 80% 30.03 in 10.0 mi South 15.0 mph 20.7 mph N/A   Overcast
8:56 PM 27.0 °F 16.7 °F 21.9 °F 81% 30.13 in 10.0 mi South 11.5 mph 18.4 mph N/A   Overcast
9:53 PM 26.6 °F 15.2 °F 21.2 °F 80% 30.01 in 10.0 mi SSE 13.8 mph 21.9 mph N/A   Overcast
9:56 PM 26.1 °F 14.0 °F 21.9 °F 84% 30.11 in 10.0 mi SSE 15.0 mph 23.0 mph N/A   Overcast
10:56 PM 26.1 °F 14.5 °F 21.9 °F 84% 30.09 in 10.0 mi SSE 13.8 mph 26.5 mph N/A   Overcast
11:56 PM 26.1 °F 15.0 °F 21.9 °F 84% 30.07 in 10.0 mi SSE 12.7 mph 21.9 mph N/A   Overcast